User: anonymous   Login
Location: Fishcreek Rd Observing Site
(41.1865°N, 81.4271°W)
Time: 01:28:57
(UTC-04:00)
Language:

Iridium 45 - Orbit

View from above orbital plane
View from above orbital plane
View from above satellite
View from above satellite

Ground track
Ground track

The orbit data is extracted from the following two-line orbital elements,

1 25104U 97082A   18174.57925087 +.00000113 +00000-0 +33228-4 0  9999
2 25104 086.3964 132.0163 0002515 104.0618 256.0857 14.34217932073345
Epoch (UTC): 23 June 2018 13:54:07
Eccentricity: 0.0002515
inclination: 86.3964°
perigee height: 776 km
apogee height: 779 km
right ascension of ascending node: 132.0163°
argument of perigee: 104.0618°
revolutions per day: 14.34217932
mean anomaly at epoch: 256.0857°
orbit number at epoch: 7334

The dashed part of the orbit path shows where the satellite is in the earth's shadow,  

DLR